Location: *
(50.3440°N, 18.6237°E)
Time: 16:59:19
(UTC+00:00)

Cosmos 1805 Rocket - Pass Details

Date: 30 November 2020
Orbit: 605 x 631 km, 82.5° (Epoch: 22 January)

Event Time Altitude Azimuth Distance (km) Brightness Sun altitude
Rises 15:34:38 0° 348° (NNW) 2,935 6.9 -7.6°
Reaches altitude 10° 15:36:54 10° 348° (NNW) 2,020 6.1 -8.0°
Maximum altitude 15:41:22 80° 263° (W) 644 3.8 -8.6°
Drops below altitude 10° 15:45:48 10° 176° (S) 1,991 6.4 -9.3°
Sets 15:48:00 0° 175° (S) 2,889 7.2 -9.6°
